Location: B
(0.0000°N, 0.0000°E)
Time: 08:07:39
(UTC+01:00)

ISS - All Passes

Search period start: 01 February 2015 00:00
Search period end: 11 February 2015 00:00
Orbit: 400 x 408 km, 51.6° (Epoch: 01 February)

Date Brightness Start Highest point End Pass type
(mag) Time Alt. Az. Time Alt. Az. Time Alt. Az.
01 Feb - 07:35:30 10° WNW 07:38:20 26° SW 07:41:08 10° S daylight
01 Feb - 19:09:06 10° SW 19:12:12 44° NW 19:15:19 10° NNE daylight
02 Feb - 06:42:47 10° NW 06:46:03 81° SW 06:49:20 10° SSE visible
02 Feb - 18:16:45 10° SSW 18:19:57 56° SE 18:23:07 10° NE daylight
03 Feb - 05:50:47 10° N 05:53:45 32° NE 05:56:45 10° ESE visible
03 Feb - 17:25:11 10° S 17:27:37 20° SE 17:30:05 10° ENE daylight
03 Feb - 19:02:37 10° WNW 19:03:59 12° NW 19:05:11 10° NNW daylight
04 Feb - 04:59:56 10° NNE 05:01:21 13° NE 05:02:57 10° E visible
04 Feb - 06:35:16 10° WNW 06:37:45 19° SW 06:40:08 10° S visible
04 Feb - 18:08:39 10° WSW 18:11:34 30° NW 18:14:27 10° N daylight
05 Feb - 05:42:09 10° NW 05:45:21 53° SW 05:48:34 10° SSE visible
05 Feb - 17:15:58 10° SW 17:19:12 84° SE 17:22:26 10° NE daylight
06 Feb - 04:49:49 10° NNW 04:52:59 46° NE 04:56:09 10° SE visible
06 Feb - 16:24:01 10° S 16:26:48 27° SE 16:29:38 10° ENE daylight
07 Feb - 03:58:20 10° N 04:00:31 17° NE 04:02:49 10° E night (unlit)
07 Feb - 05:35:01 10° W 05:36:54 14° SW 05:38:41 10° SSW visible
07 Feb - 15:33:40 10° SE 15:34:18 11° SE 15:35:07 10° ESE daylight
07 Feb - 17:08:04 10° WSW 17:10:41 22° NW 17:13:14 10° N daylight
08 Feb - 04:41:21 10° WNW 04:44:24 36° SW 04:47:28 10° SSE night (unlit)
08 Feb - 16:15:01 10° SW 16:18:13 65° NW 16:21:25 10° NNE daylight
09 Feb - 03:48:42 10° NNW 03:51:57 69° NE 03:55:13 10° SE night (unlit)
09 Feb - 15:22:42 10° SSW 15:25:45 38° SE 15:28:48 10° NE daylight
10 Feb - 02:56:48 10° N 02:59:26 23° NE 03:02:09 10° ESE night (unlit)
10 Feb - 04:35:07 10° WSW 04:35:50 10° SW 04:36:21 10° SW night (unlit)
10 Feb - 14:31:24 10° SSE 14:33:11 14° SE 14:35:06 10° E daylight
10 Feb - 16:07:24 10° W 16:09:33 16° NW 16:11:37 10° NNW daylight
